Regional Weather Roundup
Issued by NWS Jackson, KY

Home | Current Version | Previous Version | Graphics & Text | Print | Product List | Glossary On
Versions: 1 2 3 4 5 6 7 8 9 10 11 12 13 14 15 16 17 18 19 20 21 22 23 24 25 26 27 28
000
ASUS43 KJKL 250210
RWRJKL

EAST KENTUCKY HOURLY WEATHER ROUNDUP
NATIONAL WEATHER SERVICE JACKSON KY
1000 PM EDT WED AUG 24 2016

NOTE: "FAIR" INDICATES FEW OR NO CLOUDS BELOW 12,000 FEET WITH
NO SIGNIFICANT WEATHER AND/OR OBSTRUCTIONS TO VISIBILITY.

* THESE REPORTS ARE NOT UNDER NWS QUALITY CONTROL AND MAY NOT
  REPORT WEATHER SUCH AS PRECIPITATION AND FOG.

KYZ079-080-083-085-087-088-110-112-115-119-120-250300
...EASTERN KENTUCKY...

CITY           SKY/WX    TMP DP  RH WIND       PRES   REMARKS
JACKSON        CLOUDY    77  71  82 CALM      30.17F
LONDON         CLEAR     76  71  85 CALM      30.18S
SOMERSET*      CLEAR     73  72  94 CALM      30.17S
MONTICELLO*    CLEAR    N/A N/A N/A NE7       30.19
WILLIAMSBURG*  CLEAR     75  75 100 S3        30.19S
MIDDLESBORO*   CLEAR     75  72  90 CALM      30.21R
HARLAN APT*      N/A     72  70  94 CALM      30.22S
PIKE CO APT*     N/A     77  73  86 SE5       30.19S
BIG SANDY APT* CLOUDY    79  72  79 S3        30.17S
MOREHEAD APT*  CLOUDY    79  72  78 S7        30.15S
ASHLAND*       CLOUDY    79  72  78 CALM      30.09S
$$

KYZ035-036-041-042-044-050-067-078-099-250300
...CENTRAL KENTUCKY...

CITY           SKY/WX    TMP DP  RH WIND       PRES   REMARKS
MT STERLING*   MOCLDY    77  72  83 SW5       30.15S
FLEMING/MASON* CLOUDY    78  71  80 S7        30.12S
DANVILLE*      CLEAR     77  70  78 S5        30.15F
LEXINGTON      CLEAR     79  71  76 S7        30.13R
FRANKFORT      PTCLDY    80  70  71 S5        30.11R
LOUISVILLE     PTCLDY    83  73  72 S10       30.09R
LEBANON*         N/A     79  73  83 S7        30.14R
GLASGOW*       PTCLDY    78  73  84 SW3       30.14R
BOWLING GREEN  CLEAR     83  73  72 S8        30.12R
$$

KYZ091>093-OHZ055-061-077-WVZ005-015-034-035-042-250300
...SOUTHERN OHIO/WEST VIRGINIA...

CITY           SKY/WX    TMP DP  RH WIND       PRES   REMARKS
COVINGTON      CLOUDY    81  73  76 SW8       30.08R
COLUMBUS       CLOUDY    78  70  76 S10       30.06S
DAYTON         MOCLDY    77  73  87 S12       30.05F
WILMINGTON     CLOUDY    76  73  91 S9        30.07R
HUNTINGTON     PTCLDY    78  71  79 CALM      30.12S
CHARLESTON     CLOUDY    76  70  82 CALM      30.15R
PINEVILLE*     PTCLDY    70  67  88 MISG      30.28R
BECKLEY        CLEAR     70  66  87 S7        30.27S
BLUEFIELD      PTCLDY    69  64  84 SW5       30.30S
LOGAN CO APT*    N/A     77  70  78 CALM      30.19S
$$

VAZ002-007-008-TNZ017-027-036-066-071-250300
...SOUTHWEST VIRGINIA/EAST TENNESSEE...

CITY           SKY/WX    TMP DP  RH WIND       PRES   REMARKS
WISE*          PTCLDY    72  61  68 S5        30.30S
JONESVILLE*      N/A     73  72  94 CALM      30.24R
ABINGDON*      PTCLDY    73  69  88 CALM      30.26S
BRISTOL        PTCLDY    73  68  84 CALM      30.23R
MORRISTOWN*    MOCLDY    79  72  78 CALM      30.21R
SEVIERVILLE*   PTCLDY    75  70  83 CALM      30.19R
KNOXVILLE      PTCLDY    82  70  66 W3        30.19R
CROSSVILLE     CLEAR     74  71  91 CALM      30.24R
NASHVILLE      MOCLDY    82  73  74 S3        30.14R
$$

...KEY TO REMARKS...
VSB - VISIBILITY IN MILES
WCI - WIND CHILL INDEX
HX  - HEAT INDEX

$$




USA.gov is the U.S. government's official web portal to all federal, state and local government web resources and services.